This is the latest recevied weather packets stored in our database for station/object AC0YE. If no packets are shown the sender has not sent any weather packets the latest 10 day(s).
| Time | Temp. | Humidity | Pressure | Rain* | Wind** | Luminosity | Snow |
|---|---|---|---|---|---|---|---|
| 1777458916 | 7.78° C | 74% | 1017.3 hPa | 0 mm | - | - | - |
| 1777455316 | 8.33° C | 73% | 1017.4 hPa | 0 mm | - | - | - |
| 1777455016 | 8.33° C | 72% | 1017.3 hPa | 0 mm | - | - | - |
| 1777454716 | 8.33° C | 73% | 1017.3 hPa | 0 mm | - | - | - |
| 1777451716 | 8.89° C | 71% | 1017.2 hPa | 0 mm | - | - | - |
| 1777451416 | 8.89° C | 71% | 1017.2 hPa | 0 mm | - | - | - |
| 1777449916 | 8.89° C | 71% | 1017.2 hPa | 0 mm | - | - | - |
| 1777449336 | 8.89° C | 70% | 1017.2 hPa | 0 mm | - | - | - |
| 1777448416 | 9.44° C | 70% | 1017.1 hPa | 0 mm | - | - | - |
| 1777446316 | 9.44° C | 69% | 1016.8 hPa | 0 mm | - | - | - |
| 1777445716 | 9.44° C | 69% | 1016.8 hPa | 0 mm | - | - | - |
| 1777445416 | 9.44° C | 69% | 1016.7 hPa | 0 mm | - | - | - |
| 1777444836 | 9.44° C | 69% | 1016.4 hPa | 0 mm | - | - | - |
| 1777443936 | 9.44° C | 69% | 1016.4 hPa | 0 mm | - | - | - |
| 1777443616 | 9.44° C | 69% | 1016.4 hPa | 0 mm | - | - | - |
| 1777443016 | 10° C | 68% | 1016.2 hPa | 0 mm | - | - | - |
| 1777441536 | 10° C | 68% | 1016.3 hPa | 0 mm | - | - | - |
| 1777441216 | 10° C | 68% | 1016.2 hPa | 0 mm | - | - | - |
| 1777440316 | 10° C | 68% | 1015.9 hPa | 0 mm | - | - | - |
| 1777439116 | 10.56° C | 68% | 1015.6 hPa | 0 mm | - | - | - |
| 1777437316 | 11.11° C | 68% | 1015.5 hPa | 0 mm | - | - | - |
| 1777437016 | 11.11° C | 67% | 1015.4 hPa | 0 mm | - | - | - |
| 1777436716 | 11.11° C | 67% | 1015.4 hPa | 0 mm | - | - | - |
| 1777432236 | 12.22° C | 62% | 1015.4 hPa | 0 mm | - | - | - |
| 1777431916 | 12.78° C | 61% | 1015.4 hPa | 0 mm | - | - | - |
* Rain latest hour (hover to see other rain measurements)
** Current wind speed in m/s (hover to see current wind gust speed)